CXA8787 ZSAM-ZSAM

Flight info

Callsign CXA8787
Flight time N/A
Altitude 32100
Route NUSPA9Z NUSPA W597 IKATA A470 BEBEM R200 VIPAP DCT POU A599 APUPA/K0937S1040 A599 LXI W148 XSJ W146 GULOT A599 LINSO/N0505F340 A599 CTG B465 CEA Q20 GUTNO/N0502F360 Q20 BBB G450 ORLID UM306 EGNIP/N0497F380 UM306 GETAB/N0488F400 UM306 VNA UL340 DADOT/N0482F430 UL340 ADA DCT PCX UM409 MIMIP UL795 MOPIM UP793 EGDUK UP527 DADKA UM549 TBG UM419 AROVI/N0492F410 UM419 ANSON/N0488F430 UM419 ASOKU UL655 PPE J93 JLI DCT VTU/N0408F160 V27 HENER V485 FLW T333 LKHRN T329 PXN T263 WINDY T261 GONGS V195 RBL/N0494F430 J1 OED J501 TOU J523 YZP Q801 MOCKA J501 EEVER Q801 JOH J501 TED J111 MCG H222 VALDA/K0946F430 G212 ABINA N222 GIRLO B931 BAMOL T575 DITOR L771 BULOD/K0854F260 B233 NULAR/K0920F430 B467 KANSU/N0493F430 B467 TENAS A586 CJU Z82 PANSI Y711 PONIK A593 LAMEN/K0909S1310 G327 LASAN/K0911S1220 W13 HSN/K0909S1250 W13 TOGUG/K0915S1220 W13 OKATO M503 APAKA APAKA8X
Aircraft B789/H-SDE1E2E3FGHIJ2J3J4J5M1RWXY/LB1D1

Departure

Time 2026-04-27 02:03
Airport Xiamen Gaoqi International Airport (ZSAM)

Arrival

Time N/A
Airport Xiamen Gaoqi International Airport (ZSAM)
Time Latitude Longitude Altitude Speed Heading
2026-04-27 01:43 24.54033 118.12899 52 ft 8 kts 143°
2026-04-27 01:44 24.54046 118.12888 52 ft 4 kts 148°
2026-04-27 01:44 24.54068 118.12874 52 ft 4 kts 158°
2026-04-27 01:44 24.54092 118.12870 52 ft 4 kts 205°
2026-04-27 01:45 24.54111 118.12889 52 ft 4 kts 239°
2026-04-27 01:45 24.54124 118.12913 52 ft 2 kts 234°
2026-04-27 01:45 24.54125 118.12914 52 ft 8 kts 233°
2026-04-27 01:47 24.54124 118.12914 52 ft 0 kts 233°
2026-04-27 01:47 24.54124 118.12913 52 ft 0 kts 234°
2026-04-27 01:48 24.54030 118.12901 52 ft 0 kts 143°
2026-04-27 01:49 24.54033 118.12899 57 ft 0 kts 143°
2026-04-27 01:53 24.54038 118.12895 59 ft 4 kts 144°
2026-04-27 01:53 24.54059 118.12879 61 ft 3 kts 150°
2026-04-27 01:53 24.54083 118.12869 61 ft 4 kts 184°
2026-04-27 01:53 24.54105 118.12880 60 ft 4 kts 231°
2026-04-27 01:54 24.54119 118.12904 59 ft 4 kts 239°
2026-04-27 01:54 24.54125 118.12914 58 ft 8 kts 233°
2026-04-27 01:55 24.54121 118.12906 60 ft 3 kts 245°
2026-04-27 01:56 24.54135 118.12841 52 ft 7 kts 318°
2026-04-27 01:56 24.54160 118.12822 52 ft 10 kts 324°
2026-04-27 01:56 24.54185 118.12800 52 ft 8 kts 313°
2026-04-27 01:57 24.54192 118.12758 61 ft 6 kts 259°
2026-04-27 01:57 24.54176 118.12723 56 ft 5 kts 236°
2026-04-27 01:57 24.54150 118.12683 53 ft 8 kts 234°
2026-04-27 01:57 24.54103 118.12620 53 ft 17 kts 230°
2026-04-27 01:58 24.54027 118.12515 56 ft 19 kts 232°
2026-04-27 01:58 24.53937 118.12390 55 ft 21 kts 232°
2026-04-27 01:58 24.53854 118.12263 55 ft 20 kts 231°
2026-04-27 01:58 24.53767 118.12154 60 ft 18 kts 229°
2026-04-27 01:59 24.53692 118.12045 61 ft 17 kts 231°
2026-04-27 01:59 24.53618 118.11944 58 ft 17 kts 231°
2026-04-27 01:59 24.53549 118.11845 59 ft 16 kts 232°
2026-04-27 01:59 24.53482 118.11751 61 ft 15 kts 232°
2026-04-27 02:00 24.53417 118.11661 60 ft 15 kts 232°
2026-04-27 02:00 24.53403 118.11572 68 ft 11 kts 283°
2026-04-27 02:00 24.53406 118.11556 70 ft 0 kts 284°
2026-04-27 02:00 24.53408 118.11550 70 ft 4 kts 284°
2026-04-27 02:01 24.53428 118.11500 64 ft 10 kts 307°
2026-04-27 02:01 24.53480 118.11480 65 ft 7 kts 13°
2026-04-27 02:01 24.53511 118.11508 62 ft 6 kts 50°
2026-04-27 02:01 24.53520 118.11520 60 ft 1 kts 51°
2026-04-27 02:02 24.53527 118.11530 61 ft 3 kts 51°
2026-04-27 02:02 24.53535 118.11542 62 ft 16 kts 51°
2026-04-27 02:02 24.53773 118.11894 56 ft 97 kts 51°
2026-04-27 02:02 24.54356 118.12691 51 ft 168 kts 52°
2026-04-27 02:03 24.55188 118.13848 370 ft 203 kts 56°
2026-04-27 02:03 24.56079 118.15090 1205 ft 211 kts 53°
2026-04-27 02:03 24.56991 118.16418 1852 ft 224 kts 54°
2026-04-27 02:03 24.57978 118.17781 2611 ft 231 kts 53°
2026-04-27 02:04 24.58957 118.19205 3430 ft 235 kts 56°
2026-04-27 02:04 24.59889 118.20688 4284 ft 236 kts 57°
2026-04-27 02:04 24.60927 118.22033 5440 ft 219 kts 47°
2026-04-27 02:04 24.61858 118.23343 6243 ft 223 kts 68°
2026-04-27 02:05 24.61937 118.25013 6908 ft 222 kts 105°
2026-04-27 02:05 24.61083 118.26398 7552 ft 224 kts 142°
2026-04-27 02:05 24.59657 118.27069 8205 ft 227 kts 174°
2026-04-27 02:05 24.58108 118.26803 8858 ft 230 kts 207°
2026-04-27 02:06 24.56791 118.25803 9570 ft 232 kts 219°
2026-04-27 02:06 24.55515 118.24705 10266 ft 235 kts 220°
2026-04-27 02:06 24.54209 118.23624 10963 ft 235 kts 219°
2026-04-27 02:06 24.52885 118.22560 11664 ft 236 kts 219°
2026-04-27 02:07 24.51563 118.21486 12366 ft 236 kts 221°
2026-04-27 02:07 24.50477 118.20133 12719 ft 250 kts 236°
2026-04-27 02:07 24.49372 118.18529 12829 ft 277 kts 235°
2026-04-27 02:07 24.48136 118.16782 12934 ft 301 kts 234°
2026-04-27 02:08 24.46839 118.14972 13644 ft 301 kts 234°
2026-04-27 02:08 24.45547 118.13157 14281 ft 303 kts 234°
2026-04-27 02:08 24.44246 118.11316 14799 ft 311 kts 234°
2026-04-27 02:08 24.42862 118.09361 14862 ft 339 kts 234°
2026-04-27 02:09 24.41355 118.07239 14877 ft 366 kts 234°
2026-04-27 02:09 24.39737 118.04967 15061 ft 385 kts 233°
2026-04-27 02:09 24.38090 118.02657 15844 ft 385 kts 233°
2026-04-27 02:09 24.36432 118.00325 16449 ft 390 kts 233°
2026-04-27 02:10 24.34758 117.97970 17099 ft 393 kts 233°
2026-04-27 02:10 24.33070 117.95600 17734 ft 396 kts 233°
2026-04-27 02:10 24.31365 117.93209 18362 ft 400 kts 233°
2026-04-27 02:10 24.29643 117.90796 18884 ft 402 kts 233°
2026-04-27 02:11 24.27917 117.88375 19426 ft 405 kts 232°
2026-04-27 02:11 24.26177 117.85936 19977 ft 407 kts 232°
2026-04-27 02:11 24.24374 117.83531 20473 ft 410 kts 226°
2026-04-27 02:11 24.22306 117.81367 20959 ft 413 kts 225°
2026-04-27 02:12 24.20268 117.79141 21480 ft 415 kts 226°
2026-04-27 02:12 24.18217 117.76901 21941 ft 418 kts 225°
2026-04-27 02:12 24.16133 117.74676 22420 ft 420 kts 225°
2026-04-27 02:12 24.14029 117.72439 22852 ft 423 kts 225°
2026-04-27 02:13 24.11923 117.70178 23283 ft 426 kts 225°
2026-04-27 02:13 24.09807 117.67900 23707 ft 428 kts 225°
2026-04-27 02:13 24.07675 117.65615 24046 ft 430 kts 225°
2026-04-27 02:13 24.05556 117.63351 24393 ft 432 kts 225°
2026-04-27 02:14 24.03399 117.61043 24721 ft 435 kts 225°
2026-04-27 02:14 24.01238 117.58720 25036 ft 437 kts 225°
2026-04-27 02:14 23.99063 117.56385 25377 ft 439 kts 225°
2026-04-27 02:14 23.96873 117.54040 25681 ft 442 kts 225°
2026-04-27 02:15 23.94670 117.51682 25993 ft 444 kts 225°
2026-04-27 02:15 23.92458 117.49315 26307 ft 446 kts 225°
2026-04-27 02:15 23.90241 117.46943 26725 ft 445 kts 226°
2026-04-27 02:15 23.88030 117.44578 27051 ft 447 kts 226°
2026-04-27 02:16 23.85912 117.42096 27342 ft 447 kts 233°
2026-04-27 02:16 23.84195 117.39262 27620 ft 448 kts 242°
2026-04-27 02:16 23.82928 117.36153 27928 ft 449 kts 251°
2026-04-27 02:16 23.81985 117.32894 28185 ft 451 kts 252°
2026-04-27 02:17 23.81050 117.29620 28478 ft 453 kts 252°
2026-04-27 02:17 23.80434 117.27440 28673 ft 454 kts 252°
2026-04-27 02:17 23.79503 117.24145 28950 ft 455 kts 252°
2026-04-27 02:17 23.78562 117.20838 29241 ft 457 kts 252°
2026-04-27 02:18 23.77597 117.17530 29522 ft 458 kts 249°
2026-04-27 02:18 23.76261 117.14368 29768 ft 460 kts 240°
2026-04-27 02:18 23.74488 117.11472 30175 ft 459 kts 232°
2026-04-27 02:18 23.72352 117.08888 30471 ft 459 kts 228°
2026-04-27 02:19 23.70147 117.06361 30722 ft 460 kts 228°
2026-04-27 02:19 23.67934 117.03842 31041 ft 459 kts 228°
2026-04-27 02:19 23.65011 117.00526 31535 ft 457 kts 228°
2026-04-27 02:19 23.63527 116.98835 31760 ft 456 kts 228°
2026-04-27 02:20 23.61339 116.96341 32115 ft 454 kts 228°
2026-04-27 02:20 23.59159 116.93863 32475 ft 452 kts 227°
2026-04-27 02:20 23.56982 116.91392 32833 ft 451 kts 227°
2026-04-27 02:20 23.54813 116.88930 33188 ft 449 kts 227°
2026-04-27 02:21 23.52653 116.86476 33560 ft 448 kts 227°
2026-04-27 02:21 23.50526 116.84063 33868 ft 447 kts 227°
2026-04-27 02:21 23.48348 116.81590 34191 ft 445 kts 229°
2026-04-27 02:21 23.46438 116.78955 34449 ft 443 kts 238°
2026-04-27 02:22 23.44952 116.76075 34716 ft 442 kts 246°
2026-04-27 02:22 23.43881 116.72946 34989 ft 441 kts 254°
2026-04-27 02:22 23.43271 116.69675 35251 ft 441 kts 262°
2026-04-27 02:22 23.42908 116.66314 35477 ft 441 kts 262°
2026-04-27 02:23 23.42555 116.63050 35749 ft 440 kts 262°
2026-04-27 02:23 23.42208 116.59748 36048 ft 438 kts 262°
2026-04-27 02:23 23.41862 116.56456 36313 ft 437 kts 262°
2026-04-27 02:23 23.41510 116.53172 36569 ft 436 kts 262°
2026-04-27 02:24 23.41157 116.49897 36831 ft 435 kts 263°
2026-04-27 02:24 23.40808 116.46635 37092 ft 434 kts 263°
2026-04-27 02:24 23.40460 116.43376 37367 ft 432 kts 263°
2026-04-27 02:24 23.40110 116.40127 37589 ft 432 kts 263°
2026-04-27 02:25 23.39761 116.36888 37812 ft 431 kts 263°
2026-04-27 02:25 23.39411 116.33654 38060 ft 430 kts 263°
2026-04-27 02:25 23.39063 116.30432 38296 ft 429 kts 263°
2026-04-27 02:25 23.38714 116.27214 38517 ft 428 kts 263°
2026-04-27 02:26 23.38365 116.24001 38705 ft 427 kts 263°
2026-04-27 02:26 23.38015 116.20787 38854 ft 427 kts 263°
2026-04-27 02:26 23.37665 116.17576 39012 ft 427 kts 263°
2026-04-27 02:26 23.37315 116.14369 39175 ft 426 kts 263°
2026-04-27 02:27 23.36964 116.11170 39322 ft 426 kts 263°
2026-04-27 02:27 23.36613 116.07968 39478 ft 426 kts 263°
2026-04-27 02:27 23.36262 116.04771 39616 ft 425 kts 263°
2026-04-27 02:27 23.35911 116.01578 39753 ft 425 kts 263°
2026-04-27 02:28 23.35559 115.98393 39895 ft 424 kts 263°
2026-04-27 02:28 23.35207 115.95204 40022 ft 424 kts 263°
2026-04-27 02:28 23.34501 115.88836 40275 ft 422 kts 264°
2026-04-27 02:29 23.34150 115.85668 40458 ft 421 kts 264°
2026-04-27 02:29 23.33797 115.82505 40570 ft 421 kts 264°
2026-04-27 02:29 23.33444 115.79341 40681 ft 421 kts 264°
2026-04-27 02:29 23.33092 115.76187 40837 ft 420 kts 264°
2026-04-27 02:30 23.32739 115.73033 40950 ft 420 kts 264°
2026-04-27 02:30 23.32386 115.69881 41070 ft 420 kts 264°
2026-04-27 02:30 23.32032 115.66732 41184 ft 419 kts 264°
2026-04-27 02:30 23.31677 115.63585 41286 ft 419 kts 264°
2026-04-27 02:31 23.30968 115.57297 41497 ft 419 kts 264°
2026-04-27 02:31 23.30260 115.51050 41693 ft 418 kts 264°
2026-04-27 02:32 23.29541 115.44728 41896 ft 418 kts 264°
2026-04-27 02:32 23.28830 115.38494 42034 ft 418 kts 264°
2026-04-27 02:33 23.28111 115.32217 42238 ft 418 kts 264°
2026-04-27 02:33 23.27391 115.25948 42371 ft 418 kts 264°
2026-04-27 02:34 23.26667 115.19675 42529 ft 418 kts 264°
2026-04-27 02:34 23.25942 115.13407 42662 ft 418 kts 264°
2026-04-27 02:35 23.25213 115.07139 42779 ft 418 kts 264°
2026-04-27 02:35 23.24482 115.00862 42890 ft 418 kts 264°
2026-04-27 02:36 23.23747 114.94577 42964 ft 419 kts 264°
2026-04-27 02:36 23.23007 114.88280 43013 ft 421 kts 264°
2026-04-27 02:37 23.22265 114.81975 43008 ft 419 kts 264°
2026-04-27 02:37 23.21524 114.75711 42999 ft 417 kts 264°
2026-04-27 02:38 23.20783 114.69460 43009 ft 417 kts 264°
2026-04-27 02:38 23.20039 114.63206 43001 ft 418 kts 264°
2026-04-27 02:39 23.19296 114.56986 43009 ft 418 kts 264°
2026-04-27 02:39 23.18545 114.50717 43000 ft 418 kts 264°
2026-04-27 02:40 23.17785 114.44402 43001 ft 419 kts 264°
2026-04-27 02:40 23.17028 114.38128 43001 ft 419 kts 264°
2026-04-27 02:41 23.16271 114.31878 43000 ft 421 kts 264°
2026-04-27 02:41 23.15505 114.25565 43005 ft 422 kts 264°
2026-04-27 02:42 23.14736 114.19256 43007 ft 420 kts 264°
2026-04-27 02:42 23.13966 114.12966 42989 ft 419 kts 264°
2026-04-27 02:43 23.13197 114.06697 42985 ft 418 kts 264°
2026-04-27 02:43 23.12426 114.00430 42987 ft 420 kts 264°
2026-04-27 02:44 23.11647 113.94128 42991 ft 422 kts 264°
2026-04-27 02:44 23.10863 113.87802 42990 ft 422 kts 264°
2026-04-27 02:45 23.10081 113.81514 42983 ft 418 kts 264°
2026-04-27 02:45 23.09303 113.75276 42986 ft 416 kts 264°
2026-04-27 02:46 23.08521 113.69029 42984 ft 419 kts 264°
2026-04-27 02:46 23.07731 113.62745 42993 ft 421 kts 264°
2026-04-27 02:47 23.06937 113.56439 42996 ft 422 kts 264°
2026-04-27 02:47 23.06141 113.50141 42992 ft 420 kts 264°
2026-04-27 02:48 23.05345 113.43867 42989 ft 419 kts 264°
2026-04-27 02:48 23.04548 113.37601 42976 ft 420 kts 264°
2026-04-27 02:49 23.03744 113.31302 42982 ft 422 kts 264°
2026-04-27 02:49 23.02934 113.24973 42990 ft 424 kts 264°
2026-04-27 02:50 23.02270 113.18642 43014 ft 420 kts 272°
2026-04-27 02:50 23.02647 113.12315 42986 ft 420 kts 275°
2026-04-27 02:51 23.03082 113.05981 42991 ft 422 kts 275°
2026-04-27 02:51 23.03533 112.99609 42992 ft 424 kts 275°
2026-04-27 02:52 23.03974 112.93224 42990 ft 424 kts 275°
2026-04-27 02:52 23.04416 112.86857 42987 ft 423 kts 275°
2026-04-27 02:53 23.04848 112.80545 42982 ft 421 kts 275°
2026-04-27 02:53 23.05282 112.74202 42972 ft 421 kts 275°
2026-04-27 02:54 23.05713 112.67853 42978 ft 422 kts 275°
2026-04-27 02:54 23.06142 112.61492 42977 ft 422 kts 275°
2026-04-27 02:55 23.06569 112.55138 42989 ft 422 kts 275°
2026-04-27 02:55 23.07034 112.48775 42992 ft 422 kts 281°
2026-04-27 02:56 23.08293 112.42548 42986 ft 423 kts 283°
2026-04-27 02:56 23.09611 112.36328 42992 ft 423 kts 282°
2026-04-27 02:57 23.10922 112.30101 42990 ft 423 kts 282°
2026-04-27 02:57 23.12235 112.23866 42984 ft 424 kts 282°
2026-04-27 02:58 23.13544 112.17627 42987 ft 424 kts 282°
2026-04-27 02:58 23.14854 112.11378 42986 ft 424 kts 282°
2026-04-27 02:59 23.16164 112.05111 42982 ft 426 kts 282°
2026-04-27 02:59 23.17475 111.98831 42985 ft 425 kts 282°
2026-04-27 03:00 23.18557 111.93625 42983 ft 425 kts 282°